1507384800.61,21253,12.94,73344.3,0.41,-1.91,-1.87,0,*48
1507384801.87,21254,12.88,73340.0,0.41,-2.03,-1.87,0,*47
1507384803.09,21255,12.88,73342.3,0.41,-1.91,-1.79,0,*4F
1507384804.32,21256,12.88,73340.0,0.41,-1.87,-1.67,0,*44
1507384805.53,21257,12.94,73338.5,0.41,-1.75,-1.51,0,*4D
1507384806.7,21258,12.88,73336.0,0.39,-1.79,-1.59,0,*49
1507384807.9,21259,12.88,73340.8,0.41,-1.67,-1.63,0,*41
1507384809.11,21260,12.94,73342.8,0.41,-1.67,-1.63,0,*4B
1507384810.31,21261,12.88,73342.0,0.41,-1.67,-1.51,0,*4B
1507384811.51,21262,12.88,73338.3,0.41,-1.75,-1.63,0,*4A
1507384812.69,21263,12.94,73340.0,0.39,-1.79,-1.67,0,*4C
1507384813.88,21264,12.88,73340.3,0.39,-1.71,-1.55,0,*42
1507384815.06,21265,12.88,73338.0,0.39,-1.71,-1.55,0,*43
1507384816.27,21266,12.94,73340.8,0.39,-1.83,-1.67,0,*4C
1507384817.45,21267,12.94,73340.5,0.39,-1.79,-1.59,0,*45
1507384818.64,21268,12.88,73342.8,0.39,-1.71,-1.55,0,*4E
1507384819.81,21269,12.94,73346.0,0.39,-1.79,-1.59,0,*4B
1507384821.0,21270,12.94,73344.0,0.39,-1.71,-1.59,0,*4B
1507384822.2,21271,12.94,73340.3,0.37,-1.71,-1.59,0,*44
1507384823.39,21272,12.88,73340.0,0.39,-1.71,-1.55,0,*45
1507384824.57,21273,12.88,73340.5,0.39,-1.67,-1.55,0,*43
1507384825.77,21274,12.88,73338.0,0.37,-1.71,-1.59,0,*41
1507384826.98,21275,12.88,73338.8,0.37,-1.75,-1.63,0,*4D
1507384828.19,21276,12.94,73344.3,0.39,-1.67,-1.47,0,*45
1507384829.39,21277,12.94,73340.0,0.39,-1.67,-1.47,0,*44
1507384830.57,21278,12.94,73336.3,0.39,-1.75,-1.59,0,*47
1507384831.78,21279,12.88,73330.5,0.39,-1.67,-1.47,0,*4A
1507384833.01,21280,12.94,73334.8,0.37,-1.71,-1.47,0,*45
1507384834.19,21281,12.94,73336.5,0.39,-1.59,-1.55,0,*43
1507384835.4,21282,12.88,73346.3,0.37,-1.71,-1.51,0,*40
1507384836.61,21283,12.88,73344.3,0.37,-1.71,-1.51,0,*41
1507384837.79,21284,12.88,73342.8,0.39,-1.71,-1.59,0,*40
1507384838.99,21285,12.94,73344.0,0.37,-1.75,-1.59,0,*4B
1507384840.19,21286,12.94,73340.8,0.37,-1.75,-1.59,0,*48
1507384841.37,21287,12.88,73336.0,0.39,-1.67,-1.59,0,*44
1507384842.57,21288,12.94,73344.5,0.37,-1.75,-1.51,0,*4E
1507384843.77,21289,12.94,73340.3,0.37,-1.75,-1.59,0,*47
1507384844.98,21290,12.94,73342.3,0.37,-1.71,-1.59,0,*4B
1507384846.18,21291,12.88,73340.8,0.37,-1.75,-1.59,0,*4E
1507384847.39,21292,12.94,73344.0,0.37,-1.75,-1.63,0,*44
1507384848.56,21293,12.88,73340.5,0.39,-1.79,-1.59,0,*4E
1507384849.75,21294,12.88,73338.3,0.39,-1.71,-1.59,0,*41
1507384850.95,21295,12.94,73340.3,0.37,-1.75,-1.59,0,*4A
1507384852.15,21296,12.94,73336.5,0.37,-1.75,-1.59,0,*49
1507384853.35,21297,12.88,73336.5,0.37,-1.71,-1.59,0,*4C
1507384854.56,21298,12.88,73342.3,0.37,-1.71,-1.59,0,*43
1507384855.74,21299,12.94,73342.3,0.35,-1.75,-1.59,0,*44
1507384856.96,21300,12.88,73338.8,0.35,-1.83,-1.71,0,*46
1507384858.17,21301,12.88,73342.3,0.35,-1.83,-1.63,0,*44
1507384859.38,21302,12.94,73346.5,0.35,-1.87,-1.63,0,*43
1507384860.59,21303,12.88,73342.3,0.35,-1.83,-1.63,0,*46
1507384861.77,21304,12.94,73342.3,0.35,-1.75,-1.59,0,*41
1507384862.96,21305,12.88,73336.8,0.35,-1.75,-1.63,0,*49
1507384864.19,21306,12.88,73338.0,0.33,-1.91,-1.67,0,*42
1507384865.43,21307,12.94,73338.3,0.33,-1.87,-1.67,0,*44
1507384866.61,21308,12.94,73340.5,0.35,-1.71,-1.59,0,*49
1507384867.8,21309,12.94,73342.5,0.35,-1.71,-1.63,0,*41
1507384868.99,21310,12.94,73340.8,0.35,-1.71,-1.59,0,*40
1507384870.22,21311,12.94,73342.3,0.33,-1.87,-1.67,0,*43
1507384871.43,21312,12.94,73340.3,0.33,-1.79,-1.67,0,*41
1507384872.62,21313,12.88,73334.5,0.35,-1.71,-1.51,0,*4B
1507384873.85,21314,12.94,73336.0,0.33,-1.91,-1.75,0,*42
1507384875.09,21315,12.94,73338.0,0.33,-1.87,-1.67,0,*47
1507384876.32,21316,12.88,73336.0,0.33,-1.91,-1.75,0,*40
1507384877.52,21317,12.94,73340.0,0.33,-1.79,-1.63,0,*40
1507384878.73,21318,12.94,73336.5,0.33,-1.75,-1.67,0,*47
1507384879.93,21319,12.94,73338.8,0.33,-1.79,-1.55,0,*4B
1507384881.13,21320,12.94,73334.0,0.33,-1.79,-1.63,0,*44
1507384882.34,21321,12.94,73334.8,0.33,-1.75,-1.55,0,*4C
1507384883.52,21322,12.94,73336.0,0.31,-1.75,-1.63,0,*48
1507384884.72,21323,12.94,73340.8,0.33,-1.79,-1.67,0,*43
1507384885.93,21324,12.94,73340.5,0.33,-1.79,-1.67,0,*44
1507384887.14,21325,12.94,73342.5,0.31,-1.87,-1.75,0,*45
1507384888.35,21326,12.94,73340.8,0.33,-1.79,-1.67,0,*46
1507384889.53,21327,12.94,73332.0,0.31,-1.79,-1.63,0,*41
1507384890.77,21328,12.94,73334.8,0.29,-1.91,-1.71,0,*42
1507384891.95,21329,12.94,73340.3,0.31,-1.79,-1.63,0,*4F
1507384893.18,21330,12.94,73340.5,0.33,-1.87,-1.63,0,*44
1507384894.39,21331,12.94,73336.3,0.31,-1.91,-1.75,0,*47
1507384895.57,21332,12.88,73336.0,0.31,-1.79,-1.63,0,*45
1507384896.78,21333,12.94,73340.8,0.29,-1.79,-1.67,0,*49
1507384897.97,21334,12.94,73338.0,0.31,-1.79,-1.67,0,*47
1507384899.15,21335,12.94,73336.8,0.31,-1.75,-1.63,0,*4E
1507384900.35,21336,12.88,73336.3,0.29,-1.79,-1.59,0,*41
1507384901.53,21337,12.94,73342.0,0.31,-1.75,-1.55,0,*49
1507384902.73,21338,12.88,73342.0,0.29,-1.79,-1.59,0,*4F
1507384903.97,21339,12.94,73344.0,0.29,-1.83,-1.71,0,*41
1507384905.18,21340,12.94,73344.3,0.29,-1.79,-1.59,0,*40
1507384906.38,21341,12.94,73346.3,0.29,-1.79,-1.55,0,*4D
1507384907.59,21342,12.88,73340.0,0.29,-1.79,-1.67,0,*4F
1507384908.78,21343,12.94,73342.8,0.31,-1.75,-1.67,0,*4B
1507384910.02,21344,12.94,73340.0,0.29,-1.83,-1.67,0,*4C
1507384911.22,21345,12.94,73344.0,0.29,-1.79,-1.59,0,*45
1507384912.45,21346,12.94,73346.3,0.31,-1.91,-1.91,0,*4D
1507384913.71,21347,12.94,73346.8,0.29,-1.95,-1.83,0,*42
1507384914.97,21348,12.94,73344.8,0.29,-1.95,-1.83,0,*4D
1507384916.2,21349,12.94,73346.0,0.29,-1.95,-1.79,0,*49
1507384917.43,21350,12.88,73344.3,0.27,-1.95,-1.83,0,*4A
1507384918.65,21351,12.94,73342.5,0.27,-1.91,-1.71,0,*42
1507384919.86,21352,12.88,73342.0,0.27,-1.83,-1.71,0,*42
1507384921.08,21353,12.88,73336.5,0.27,-1.83,-1.71,0,*43
1507384922.29,21354,12.94,73338.5,0.23,-1.95,-1.75,0,*43
1507384923.51,21355,12.94,73338.0,0.27,-1.83,-1.71,0,*45
1507384924.72,21356,12.94,73332.5,0.23,-1.87,-1.71,0,*46
1507384925.91,21357,12.94,73328.8,0.27,-1.79,-1.67,0,*45
1507384927.13,21358,12.94,73334.0,0.23,-1.87,-1.71,0,*48
1507384928.34,21359,12.94,73336.8,0.27,-1.83,-1.71,0,*49
1507384929.56,21360,12.94,73336.5,0.27,-1.83,-1.71,0,*43
1507384930.8,21361,12.94,73346.8,0.23,-1.99,-1.87,0,*44
1507384932.04,21362,12.94,73346.3,0.23,-2.03,-1.83,0,*43
1507384933.27,21363,12.94,73344.3,0.27,-1.95,-1.91,0,*49
1507384934.51,21364,12.94,73344.3,0.23,-2.07,-1.95,0,*46
1507384935.72,21365,12.94,73340.3,0.23,-1.91,-1.75,0,*45
1507384936.92,21366,12.94,73340.5,0.27,-1.95,-1.79,0,*4A
1507384938.16,21367,12.94,73340.3,0.23,-1.95,-1.87,0,*4E
1507384939.39,21368,12.94,73344.3,0.23,-1.95,-1.83,0,*45
1507384940.6,21369,12.94,73342.0,0.23,-1.95,-1.75,0,*4D
1507384941.84,21370,12.94,73342.0,0.23,-1.99,-1.83,0,*40
1507384943.08,21371,12.94,73340.0,0.21,-1.91,-1.75,0,*42
1507384944.31,21372,12.88,73332.0,0.21,-1.87,-1.75,0,*46
1507384945.55,21373,12.94,73338.3,0.21,-1.87,-1.75,0,*47
1507384946.78,21374,12.94,73334.0,0.21,-1.87,-1.75,0,*40
1507384948.0,21375,12.94,73334.3,0.23,-1.83,-1.75,0,*47
1507384949.25,21376,12.94,73332.3,0.21,-1.91,-1.87,0,*48
1507384950.49,21377,12.94,73336.5,0.21,-1.91,-1.79,0,*48
1507384951.72,21378,12.94,73336.5,0.21,-1.91,-1.79,0,*47
1507384952.96,21379,12.94,73336.8,0.19,-2.03,-1.91,0,*43
1507384954.22,21380,12.94,73338.0,0.21,-1.99,-1.91,0,*4E
1507384955.49,21381,12.94,73346.0,0.21,-1.99,-1.87,0,*48
1507384956.72,21382,12.88,73338.3,0.23,-1.95,-1.83,0,*41
1507384957.99,21383,12.94,73348.5,0.21,-2.11,-2.03,0,*46
1507384959.23,21384,12.94,73344.5,0.19,-1.99,-1.87,0,*46
1507384960.46,21385,12.94,73346.0,0.19,-2.03,-1.91,0,*40
1507384961.71,21386,12.94,73344.0,0.19,-1.99,-1.87,0,*44
1507384962.97,21387,12.94,73342.3,0.21,-2.03,-1.87,0,*4E
1507384964.18,21388,12.94,73340.5,0.19,-1.91,-1.75,0,*4F
1507384965.39,21389,12.94,73342.3,0.19,-1.91,-1.75,0,*4E
1507384966.6,21390,12.94,73340.3,0.19,-1.91,-1.79,0,*4A
1507384967.81,21391,12.94,73338.3,0.19,-1.99,-1.75,0,*4F
1507384969.05,21392,12.94,73336.5,0.19,-1.91,-1.87,0,*49
1507384970.26,21393,12.94,73340.3,0.19,-1.91,-1.75,0,*45
1507384971.47,21394,12.94,73336.8,0.19,-1.91,-1.75,0,*42
1507384972.68,21395,12.94,73340.8,0.19,-1.99,-1.79,0,*47
1507384973.94,21396,12.94,73342.5,0.17,-1.95,-1.83,0,*43
1507384975.19,21397,12.94,73342.8,0.17,-1.95,-1.83,0,*42
1507384976.45,21398,12.94,73340.8,0.17,-2.03,-1.83,0,*41
1507384977.71,21399,12.94,73338.0,0.17,-1.95,-1.83,0,*4C
1507384978.96,21400,12.94,73342.8,0.17,-2.03,-1.91,0,*44
1507384980.22,21401,12.94,73340.5,0.17,-2.07,-2.03,0,*49
1507384981.48,21402,12.94,73340.8,0.17,-2.03,-1.91,0,*46
1507384982.72,21403,12.94,73342.5,0.15,-2.03,-1.91,0,*45
1507384983.96,21404,12.94,73342.0,0.15,-2.07,-2.03,0,*4E
1507384985.18,21405,12.94,73342.8,0.17,-2.15,-1.95,0,*42
1507384986.44,21406,12.94,73346.0,0.17,-2.07,-1.91,0,*46
1507384987.67,21407,12.94,73346.0,0.15,-2.07,-1.95,0,*41
1507384988.88,21408,12.94,73342.3,0.15,-1.95,-1.79,0,*44
1507384990.12,21409,12.94,73340.8,0.15,-1.95,-1.83,0,*40
1507384991.35,21410,12.94,73340.3,0.15,-1.95,-1.83,0,*48
1507384992.59,21411,12.94,73340.0,0.15,-2.07,-1.91,0,*42
1507384993.82,21412,12.94,73338.8,0.15,-2.07,-1.95,0,*45
1507384995.06,21413,12.94,73336.0,0.15,-2.07,-2.03,0,*48
1507384996.27,21414,12.94,73336.3,0.15,-2.15,-2.03,0,*4C
1507384997.53,21415,12.94,73336.3,0.13,-2.11,-1.95,0,*43
1507384998.8,21416,12.94,73336.0,0.13,-2.07,-1.83,0,*40
1507385000.07,21417,12.94,73340.5,0.13,-1.99,-1.87,0,*41
1507385001.33,21418,12.94,73340.5,0.13,-2.07,-1.95,0,*49
1507385002.58,21419,12.94,73340.0,0.11,-2.07,-1.87,0,*49
1507385003.84,21420,12.94,73338.3,0.11,-2.07,-1.95,0,*40
1507385005.1,21421,12.94,73340.3,0.13,-2.07,-1.99,0,*4F
1507385006.37,21422,12.94,73336.3,0.13,-2.07,-1.87,0,*43
1507385007.63,21423,12.94,73340.0,0.13,-1.95,-1.83,0,*4E
1507385008.89,21424,12.94,73342.0,0.11,-1.99,-1.87,0,*43
1507385010.16,21425,12.94,73336.5,0.13,-2.07,-1.87,0,*44
1507385011.41,21426,12.94,73332.3,0.13,-2.07,-1.95,0,*44
1507385012.67,21427,12.94,73334.3,0.11,-2.07,-1.87,0,*44
1507385013.93,21428,12.94,73336.0,0.11,-1.99,-1.87,0,*4F
1507385015.2,21429,12.94,73336.3,0.13,-2.07,-1.99,0,*47
1507385016.46,21430,12.94,73338.5,0.11,-2.07,-1.87,0,*42
1507385017.71,21431,12.94,73336.8,0.11,-2.07,-1.95,0,*40
1507385018.97,21432,12.94,73336.3,0.11,-2.07,-1.87,0,*40
1507385020.23,21433,12.94,73338.0,0.11,-2.07,-1.87,0,*41
1507385021.49,21434,12.94,73338.3,0.11,-1.99,-1.87,0,*42
1507385022.75,21435,12.94,73336.0,0.11,-1.99,-1.87,0,*43
1507385024.01,21436,12.94,73342.5,0.11,-2.11,-1.95,0,*40
1507385025.27,21437,12.94,73338.0,0.11,-2.07,-1.99,0,*4A
1507385026.53,21438,12.94,73336.8,0.11,-2.11,-2.11,0,*41
1507385027.79,21439,12.94,73336.5,0.11,-2.07,-1.83,0,*4F
1507385028.99,21440,12.94,73342.3,0.09,-2.23,-2.11,0,*76
1507385030.16,21441,12.94,73340.5,0.09,-2.39,-2.23,0,*7D
1507385031.37,21442,12.94,73340.3,0.07,-2.31,-2.23,0,*78
1507385032.57,21443,12.94,73342.3,0.09,-2.23,-2.03,0,*76
1507385033.8,21444,12.94,73340.0,0.07,-2.23,-2.11,0,*7C
1507385035.07,21445,12.94,73342.0,0.07,-2.11,-1.99,0,*7F
1507385036.3,21446,12.94,73338.3,0.07,-2.15,-2.03,0,*78
1507385037.55,21447,12.94,73336.0,0.07,-2.03,-1.91,0,*76
1507385038.81,21448,12.94,73336.8,0.07,-2.11,-1.91,0,*7A
1507385040.07,21449,12.94,73338.0,0.07,-2.03,-1.91,0,*78
1507385041.34,21450,12.94,73340.3,0.07,-2.11,-1.99,0,*7B
1507385042.6,21451,12.94,73338.5,0.07,-2.11,-1.99,0,*7A
1507385043.86,21452,12.94,73336.8,0.07,-2.03,-1.87,0,*75
1507385045.09,21453,12.94,73344.3,0.07,-2.15,-2.03,0,*7C
1507385046.32,21454,12.94,73338.8,0.07,-2.15,-1.99,0,*7B
1507385047.53,21455,12.94,73342.5,0.07,-2.27,-2.15,0,*7C
1507385048.73,21456,12.94,73346.3,0.07,-2.27,-2.15,0,*7F
1507385049.96,21457,12.94,73344.3,0.07,-2.23,-2.11,0,*7E
1507385051.17,21458,12.94,73344.5,0.01,-2.31,-2.07,0,*73
1507385052.35,21459,12.94,73346.0,0.01,-2.31,-2.15,0,*71
1507385053.55,21460,12.94,73346.3,0.05,-2.47,-2.27,0,*7F
1507385054.73,21461,12.94,73346.0,0.01,-2.31,-2.19,0,*76
1507385055.93,21462,12.94,73344.0,0.01,-2.23,-2.07,0,*79
1507385057.13,21463,12.94,73348.5,0.05,-2.19,-2.07,0,*75
1507385058.31,21464,12.94,73346.0,0.01,-2.23,-2.23,0,*79
1507385059.51,21465,12.94,73348.3,0.01,-2.23,-2.07,0,*7E
1507385060.71,21466,12.94,73348.8,0.05,-2.19,-2.07,0,*70
1507385061.92,21467,12.94,73346.3,0.01,-2.19,-2.07,0,*75
1507385063.12,21468,12.94,73346.3,0.01,-2.19,-1.99,0,*7E
1507385064.32,21469,12.94,73342.5,0.01,-2.19,-2.07,0,*7B
1507385065.52,21470,12.94,73344.3,0.01,-2.23,-2.11,0,*7D
1507385066.73,21471,12.94,73346.5,0.01,-2.19,-2.07,0,*72
1507385067.96,21472,12.94,73344.8,0.01,-2.11,-1.99,0,*7D
1507385069.16,21473,12.94,73344.0,0.01,-2.23,-2.11,0,*7E
1507385070.4,21474,12.94,73342.5,0.01,-2.11,-1.99,0,*7B
1507385071.63,21475,12.94,73340.0,0.01,-2.11,-1.99,0,*7A
1507385072.83,21476,12.94,73338.8,0.01,-2.23,-2.07,0,*7C
1507385074.1,21477,12.94,73338.0,-0.01,-2.11,-1.99,0,*55
1507385075.36,21478,12.94,73334.8,-0.01,-2.11,-1.95,0,*56
1507385076.61,21479,12.94,73332.8,-0.01,-2.07,-1.95,0,*50
1507385077.87,21480,12.94,73332.8,-0.01,-2.11,-1.95,0,*51
1507385079.13,21481,12.94,73328.3,-0.01,-2.07,-1.95,0,*57
1507385080.39,21482,12.94,73334.8,-0.01,-2.11,-1.95,0,*53
1507385081.64,21483,12.94,73328.5,-0.01,-2.07,-1.95,0,*55
1507385082.88,21484,12.94,73334.3,-0.03,-2.11,-1.99,0,*5B
1507385084.12,21485,12.94,73340.5,-0.03,-2.11,-1.99,0,*5A
1507385085.33,21486,12.94,73336.3,-0.03,-2.15,-1.95,0,*51
1507385086.56,21487,12.94,73338.3,-0.01,-2.19,-2.07,0,*56
1507385087.82,21488,12.94,73340.5,-0.01,-2.07,-1.83,0,*59
1507385089.08,21489,12.94,73346.0,-0.01,-2.07,-1.87,0,*5C
1507385090.34,21490,12.94,73346.0,-0.01,-2.07,-1.95,0,*57
1507385091.58,21491,12.94,73340.5,-0.03,-2.11,-1.99,0,*5F
1507385092.82,21492,12.94,73344.0,-0.03,-2.11,-2.03,0,*5C
1507385094.06,21493,12.94,73346.3,-0.03,-2.07,-1.99,0,*5A
1507385095.3,21494,12.94,73340.5,-0.03,-2.11,-1.99,0,*5A
1507385096.57,21495,12.94,73340.8,-0.01,-1.99,-1.91,0,*52
1507385097.77,21496,12.94,73344.3,-0.03,-2.15,-1.91,0,*54
1507385099.01,21497,12.94,73342.3,-0.03,-2.11,-2.03,0,*59
1507385100.25,21498,12.94,73340.3,-0.03,-2.11,-1.99,0,*56
1507385101.48,21499,12.94,73346.0,-0.03,-2.03,-1.91,0,*5C
1507385102.72,21500,12.94,73344.5,-0.03,-2.03,-1.87,0,*5A
1507385103.96,21501,12.94,73342.8,-0.03,-1.99,-1.87,0,*5B
1507385105.2,21502,12.94,73344.0,-0.03,-1.99,-1.87,0,*58
1507385106.43,21503,12.94,73340.8,-0.03,-2.03,-1.91,0,*5E
1507385107.67,21504,12.94,73342.8,-0.03,-2.11,-1.91,0,*5A
1507385108.93,21505,12.94,73340.3,-0.05,-2.03,-1.87,0,*59
1507385110.19,21506,12.94,73334.8,-0.05,-2.03,-1.91,0,*5D
1507385111.46,21507,12.94,73334.5,-0.05,-2.11,-1.91,0,*5F
1507385112.72,21508,12.94,73340.8,-0.05,-2.11,-1.99,0,*58
1507385113.99,21509,12.94,73340.3,-0.05,-2.11,-1.99,0,*59
1507385115.26,21510,12.94,73342.0,-0.05,-2.11,-2.03,0,*51
1507385116.49,21511,12.94,73342.3,-0.07,-2.07,-1.95,0,*59
1507385117.72,21512,12.94,73340.0,-0.05,-2.15,-2.03,0,*57
1507385118.92,21513,12.94,73338.0,-0.07,-2.15,-1.95,0,*58
1507385120.13,21514,12.94,73340.0,-0.07,-2.15,-1.95,0,*5F
1507385121.39,21515,12.94,73338.8,-0.05,-2.11,-2.03,0,*54
1507385122.65,21516,12.94,73336.5,-0.05,-2.11,-1.91,0,*5F
1507385123.92,21517,12.94,73342.8,-0.05,-2.11,-1.91,0,*5E
1507385125.15,21518,12.94,73342.3,-0.07,-2.07,-1.91,0,*54
1507385126.39,21519,12.94,73340.0,-0.05,-2.23,-1.99,0,*59
1507385127.57,21520,12.94,73342.3,-0.07,-2.27,-2.15,0,*52
1507385128.81,21521,12.94,73338.8,-0.09,-2.19,-2.11,0,*54
1507385130.02,21522,12.94,73338.5,-0.07,-2.19,-1.91,0,*52
1507385131.25,21523,12.94,73342.0,-0.05,-2.15,-2.03,0,*55
1507385132.43,21524,12.94,73340.5,-0.07,-2.31,-2.27,0,*50
1507385133.62,21525,12.94,73340.8,-0.07,-2.31,-2.19,0,*5C
1507385134.83,21526,12.94,73340.3,-0.09,-2.35,-2.19,0,*55
1507385136.07,21527,12.94,73342.0,-0.09,-2.23,-2.11,0,*5B
1507385137.28,21528,12.94,73344.5,-0.09,-2.31,-2.19,0,*5F
1507385138.49,21529,12.94,73340.5,-0.09,-2.31,-2.19,0,*5E
1507385139.71,21530,12.94,73342.8,-0.09,-2.31,-2.19,0,*56
1507385140.92,21531,12.94,73338.3,-0.09,-2.35,-2.23,0,*5A
1507385142.11,21532,12.94,73344.8,-0.11,-2.35,-2.23,0,*60
1507385143.3,21533,12.94,73346.0,-0.11,-2.35,-2.23,0,*61
1507385144.51,21534,12.94,73340.3,-0.11,-2.23,-2.11,0,*60
1507385145.7,21535,12.94,73340.0,-0.11,-2.35,-2.19,0,*6E
1507385146.91,21536,12.94,73340.5,-0.09,-2.35,-2.23,0,*5D
1507385148.1,21537,12.94,73346.0,-0.11,-2.43,-2.35,0,*63
1507385149.29,21538,12.94,73342.8,-0.11,-2.35,-2.23,0,*6A
1507385150.5,21539,12.94,73338.8,-0.09,-2.35,-2.35,0,*55
1507385151.75,21540,12.94,73342.5,-0.13,-2.47,-2.35,0,*65
1507385152.99,21541,12.94,73340.0,-0.13,-2.47,-2.39,0,*68
1507385154.24,21542,12.94,73340.5,-0.13,-2.47,-2.35,0,*67
1507385155.49,21543,12.94,73338.3,-0.13,-2.47,-2.35,0,*66
1507385156.73,21544,12.94,73340.8,-0.13,-2.51,-2.39,0,*6A
1507385157.95,21545,12.94,73342.3,-0.13,-2.35,-2.23,0,*62
1507385159.14,21546,12.94,73342.3,-0.15,-2.39,-2.27,0,*6F
1507385160.35,21547,12.94,73340.3,-0.13,-2.39,-2.15,0,*69
1507385161.56,21548,12.94,73340.5,-0.15,-2.47,-2.27,0,*68
1507385162.78,21549,12.94,73340.0,-0.15,-2.47,-2.27,0,*69
1507385164.0,21550,12.94,73342.0,-0.13,-2.39,-2.23,0,*6A
1507385165.18,21551,12.94,73342.3,-0.15,-2.39,-2.27,0,*69
1507385166.4,21552,12.94,73342.5,-0.13,-2.35,-2.23,0,*64
1507385167.59,21553,12.94,73342.3,-0.15,-2.27,-2.15,0,*65
1507385168.77,21554,12.94,73340.5,-0.15,-2.39,-2.27,0,*6C
1507385169.99,21555,12.94,73342.8,-0.15,-2.51,-2.39,0,*6C
1507385171.21,21556,12.94,73338.5,-0.15,-2.47,-2.27,0,*67
1507385172.39,21557,12.94,73340.8,-0.15,-2.39,-2.27,0,*6F
1507385173.61,21558,12.94,73336.8,-0.17,-2.43,-2.27,0,*6F
1507385174.82,21559,12.94,73340.0,-0.17,-2.39,-2.27,0,*63
1507385176.01,21560,12.94,73340.5,-0.21,-2.31,-2.19,0,*69
1507385177.23,21561,12.94,73342.0,-0.17,-2.31,-2.19,0,*6D
1507385178.45,21562,12.94,73340.8,-0.17,-2.31,-2.19,0,*6E
1507385179.64,21563,12.94,73336.8,-0.21,-2.31,-2.19,0,*6A
1507385180.86,21564,12.94,73340.8,-0.17,-2.43,-2.39,0,*6F
1507385182.05,21565,12.94,73338.0,-0.21,-2.43,-2.31,0,*63
1507385183.23,21566,12.94,73340.0,-0.21,-2.39,-2.15,0,*6B
1507385184.42,21567,12.94,73338.5,-0.21,-2.31,-2.15,0,*62
1507385185.64,21568,12.94,73340.0,-0.17,-2.27,-2.15,0,*6F
1507385186.86,21569,12.94,73342.3,-0.17,-2.31,-2.19,0,*65
1507385188.05,21570,12.94,73338.8,-0.21,-2.31,-2.19,0,*68
1507385189.27,21571,12.94,73340.0,-0.17,-2.27,-2.19,0,*6B
1507385190.46,21572,12.94,73340.8,-0.21,-2.31,-2.15,0,*66
1507385191.71,21573,12.94,73340.5,-0.17,-2.19,-2.07,0,*6B
1507385192.95,21574,12.94,73340.5,-0.17,-2.15,-2.03,0,*64
1507385194.2,21575,12.94,73336.5,-0.17,-2.19,-2.03,0,*69
1507385195.4,21576,12.94,73338.3,-0.21,-2.15,-1.95,0,*6F
1507385196.61,21577,12.94,73338.8,-0.21,-2.15,-1.95,0,*6E
1507385197.84,21578,12.94,73336.8,-0.21,-2.07,-1.95,0,*62
1507385199.08,21579,12.94,73338.8,-0.17,-2.15,-1.95,0,*65
1507385200.28,21580,12.94,73340.5,-0.21,-2.15,-1.95,0,*66
1507385201.53,21581,12.94,73340.5,-0.17,-2.15,-1.91,0,*66
1507385202.73,21582,12.94,73342.5,-0.21,-2.15,-1.95,0,*64
1507385203.96,21583,12.94,73336.5,-0.21,-2.07,-1.95,0,*66
1507385205.18,21584,12.94,73338.3,-0.21,-2.15,-2.03,0,*6E
1507385206.42,21585,12.94,73336.8,-0.17,-2.15,-1.95,0,*66
1507385207.65,21586,12.94,73340.0,-0.21,-2.03,-1.95,0,*67
1507385208.85,21587,12.94,73336.0,-0.21,-2.15,-1.95,0,*61
1507385210.09,21588,12.94,73336.5,-0.23,-2.23,-2.07,0,*61
1507385211.35,21589,12.94,73338.3,-0.23,-2.11,-1.95,0,*69
1507385212.61,21590,12.94,73338.8,-0.23,-2.11,-1.95,0,*61
1507385213.85,21591,12.94,73340.0,-0.23,-2.23,-2.07,0,*69
1507385215.09,21592,12.94,73340.5,-0.23,-2.19,-1.99,0,*67
1507385216.33,21593,12.94,73338.0,-0.23,-2.23,-2.11,0,*6C
1507385217.58,21594,12.94,73338.8,-0.25,-2.11,-1.99,0,*6F
1507385218.85,21595,12.94,73338.3,-0.23,-2.11,-1.99,0,*68
1507385220.11,21596,12.94,73340.3,-0.23,-2.11,-1.95,0,*67
1507385221.33,21597,12.94,73336.8,-0.25,-2.19,-1.99,0,*64
1507385222.61,21598,12.94,73338.0,-0.23,-2.11,-2.07,0,*61
1507385223.84,21599,12.94,73340.3,-0.23,-2.19,-2.07,0,*68
1507385225.08,21600,12.94,73342.3,-0.23,-2.23,-2.11,0,*65
1507385226.32,21601,12.94,73340.8,-0.23,-2.23,-2.11,0,*64
1507385227.56,21602,12.94,73336.3,-0.23,-2.31,-2.11,0,*64
1507385228.78,21603,12.94,73336.0,-0.25,-2.19,-2.07,0,*6E
1507385229.99,21604,12.94,73340.8,-0.25,-2.23,-2.07,0,*60
1507385231.21,21605,12.94,73336.8,-0.25,-2.23,-2.11,0,*66
1507385232.43,21606,12.94,73340.3,-0.25,-2.23,-2.07,0,*62
1507385233.67,21607,12.94,73340.8,-0.23,-2.19,-1.99,0,*68
1507385234.86,21608,12.94,73338.0,-0.25,-2.35,-2.19,0,*64
1507385236.08,21609,12.94,73342.5,-0.25,-2.23,-2.07,0,*6D
1507385237.3,21610,12.94,73340.8,-0.25,-2.23,-2.11,0,*62
1507385238.49,21611,12.94,73340.0,-0.25,-2.35,-2.23,0,*65
1507385239.71,21612,12.94,73342.0,-0.25,-2.31,-2.11,0,*63
1507385240.92,21613,12.94,73338.3,-0.27,-2.27,-2.15,0,*63
1507385242.16,21614,12.94,73338.0,-0.27,-2.27,-2.11,0,*60
1507385243.35,21615,12.94,73340.0,-0.29,-2.27,-2.15,0,*6B
1507385244.59,21616,12.94,73340.8,-0.27,-2.35,-2.11,0,*61
1507385245.8,21617,12.94,73342.5,-0.27,-2.23,-2.15,0,*63
1507385247.04,21618,12.94,73340.3,-0.27,-2.23,-2.03,0,*6B
1507385248.27,21619,12.94,73340.0,-0.27,-2.23,-2.03,0,*6A
1507385249.49,21620,12.94,73342.3,-0.29,-2.23,-2.03,0,*6E
1507385250.73,21621,12.94,73342.5,-0.27,-2.23,-1.99,0,*61
1507385252.0,21622,12.94,73342.3,-0.27,-2.11,-2.03,0,*63
1507385253.21,21623,12.94,73336.5,-0.29,-2.27,-2.03,0,*69
1507385254.45,21624,12.94,73340.8,-0.27,-2.23,-2.11,0,*67
1507385255.69,21625,12.94,73336.8,-0.27,-2.23,-1.99,0,*65
1507385256.96,21626,12.94,73336.5,-0.27,-2.11,-1.99,0,*67
1507385258.2,21627,12.94,73338.3,-0.27,-2.15,-2.03,0,*62
1507385259.42,21628,12.94,73336.0,-0.29,-2.23,-2.11,0,*65
1507385260.67,21629,12.94,73336.8,-0.29,-2.11,-1.99,0,*66
1507385261.92,21630,12.94,73338.8,-0.29,-2.11,-1.99,0,*6E
1507385263.2,21631,12.94,73338.0,-0.27,-1.99,-1.99,0,*62
1507385264.45,21632,12.94,73338.5,-0.29,-2.11,-1.99,0,*6C
1507385265.69,21633,12.94,73340.8,-0.29,-2.03,-1.87,0,*61
1507385266.94,21634,12.94,73340.0,-0.29,-2.03,-1.91,0,*61
1507385268.21,21635,12.94,73336.3,-0.27,-2.11,-1.91,0,*6D
1507385269.46,21636,12.94,73332.0,-0.29,-2.11,-1.99,0,*68
1507385270.7,21637,12.94,73336.5,-0.29,-2.03,-1.87,0,*65
1507385271.95,21638,12.94,73332.3,-0.29,-2.03,-1.87,0,*6A
1507385273.2,21639,12.94,73336.0,-0.29,-2.11,-1.91,0,*6F
1507385274.45,21640,12.94,73336.5,-0.29,-2.03,-1.99,0,*6A
1507385275.72,21641,12.94,73336.5,-0.27,-2.11,-1.99,0,*66
1507385276.99,21642,12.94,73334.5,-0.27,-2.11,-1.91,0,*6D
1507385278.23,21643,12.94,73336.0,-0.29,-2.11,-1.91,0,*62
1507385279.45,21644,12.94,73338.3,-0.29,-2.15,-1.91,0,*61
1507385280.69,21645,12.94,73334.0,-0.29,-2.03,-1.91,0,*67
1507385281.96,21646,12.94,73336.3,-0.31,-2.03,-1.91,0,*6D
1507385283.18,21647,12.94,73332.0,-0.29,-2.15,-1.99,0,*6A
1507385284.4,21648,12.94,73336.3,-0.29,-2.27,-2.11,0,*67
1507385285.62,21649,12.94,73334.3,-0.29,-2.23,-2.03,0,*61
1507385286.83,21650,12.94,73336.8,-0.29,-2.15,-2.03,0,*6C
1507385288.07,21651,12.94,73336.8,-0.31,-2.15,-2.03,0,*64
1507385289.34,21652,12.94,73336.0,-0.31,-2.07,-1.91,0,*6C
1507385290.61,21653,12.94,73336.0,-0.31,-2.07,-1.95,0,*69
1507385291.84,21654,12.94,73332.0,-0.31,-2.15,-1.95,0,*6D
1507385293.07,21655,12.94,73336.3,-0.31,-2.15,-1.95,0,*6C
1507385294.32,21656,12.94,73338.0,-0.31,-2.19,-2.07,0,*6B
1507385295.59,21657,12.94,73330.0,-0.31,-2.07,-2.03,0,*61
1507385296.83,21658,12.94,73332.3,-0.31,-2.19,-2.03,0,*61
1507385298.02,21659,12.94,73332.5,-0.33,-2.23,-2.19,0,*60
1507385299.26,21660,12.94,73338.3,-0.31,-2.19,-2.07,0,*6E
1507385300.47,21661,12.94,73338.5,-0.31,-2.27,-2.15,0,*61
1507385301.69,21662,12.94,73334.0,-0.33,-2.23,-2.07,0,*67
1507385302.93,21663,12.94,73332.8,-0.31,-2.19,-2.03,0,*69
1507385304.2,21664,12.94,73332.3,-0.31,-2.07,-1.95,0,*6D
1507385305.44,21665,12.94,73334.8,-0.33,-2.11,-1.95,0,*69
1507385306.66,21666,12.94,73336.3,-0.33,-2.19,-1.99,0,*6E
1507385307.9,21667,12.94,73338.0,-0.31,-2.15,-1.91,0,*69
1507385309.13,21668,12.94,73336.0,-0.31,-2.15,-1.95,0,*62
1507385310.37,21669,12.94,73338.0,-0.33,-2.07,-1.95,0,*62
1507385311.59,21670,12.94,73338.5,-0.33,-2.23,-1.99,0,*60